HAL807 KLAS-PHNL

Flight info

Callsign HAL807
Flight time N/A
Altitude 28000
Route JOHKR5 KENNO OAK BEBOP R464 BILLO/N0461F400 R464 BITTA MAGGI3
Aircraft A332/H-SDE3GHIJ2J3J5M1RVWXY/LB2D1

Departure

Time 2026-05-06 19:57
Airport Harry Reid International Airport (KLAS)

Arrival

Time N/A
Airport Daniel K. Inouye International Airport (PHNL)
Time Latitude Longitude Altitude Speed Heading
2026-05-06 19:31 36.08127 -115.13982 2097 ft 0 kts 142°
2026-05-06 19:43 36.08128 -115.13983 2097 ft 2 kts 142°
2026-05-06 19:43 36.08143 -115.13997 2097 ft 4 kts 141°
2026-05-06 19:44 36.08163 -115.14019 2097 ft 4 kts 134°
2026-05-06 19:44 36.08182 -115.14040 2097 ft 4 kts 167°
2026-05-06 19:44 36.08184 -115.14055 2097 ft 3 kts 259°
2026-05-06 19:48 36.08170 -115.14122 2097 ft 11 kts 230°
2026-05-06 19:48 36.08103 -115.14155 2098 ft 9 kts 188°
2026-05-06 19:48 36.08041 -115.14158 2098 ft 8 kts 181°
2026-05-06 19:49 36.07989 -115.14159 2098 ft 7 kts 181°
2026-05-06 19:49 36.07943 -115.14161 2098 ft 7 kts 181°
2026-05-06 19:49 36.07883 -115.14162 2098 ft 9 kts 181°
2026-05-06 19:49 36.07823 -115.14164 2098 ft 8 kts 181°
2026-05-06 19:50 36.07778 -115.14149 2098 ft 6 kts 136°
2026-05-06 19:50 36.07754 -115.14052 2097 ft 14 kts 90°
2026-05-06 19:50 36.07754 -115.13933 2097 ft 13 kts 90°
2026-05-06 19:50 36.07754 -115.13823 2096 ft 12 kts 90°
2026-05-06 19:51 36.07753 -115.13722 2096 ft 11 kts 90°
2026-05-06 19:51 36.07753 -115.13629 2095 ft 10 kts 90°
2026-05-06 19:51 36.07753 -115.13542 2095 ft 10 kts 90°
2026-05-06 19:51 36.07753 -115.13462 2094 ft 10 kts 90°
2026-05-06 19:52 36.07753 -115.13379 2093 ft 10 kts 90°
2026-05-06 19:52 36.07753 -115.13294 2091 ft 10 kts 90°
2026-05-06 19:52 36.07752 -115.13200 2089 ft 12 kts 90°
2026-05-06 19:52 36.07753 -115.13095 2085 ft 13 kts 90°
2026-05-06 19:53 36.07753 -115.12969 2080 ft 16 kts 90°
2026-05-06 19:53 36.07754 -115.12821 2074 ft 18 kts 88°
2026-05-06 19:53 36.07756 -115.12657 2067 ft 20 kts 89°
2026-05-06 19:53 36.07758 -115.12479 2062 ft 21 kts 89°
2026-05-06 19:54 36.07757 -115.12295 2056 ft 22 kts 91°
2026-05-06 19:54 36.07753 -115.12180 2053 ft 0 kts 98°
2026-05-06 19:54 36.07751 -115.12170 2053 ft 2 kts 98°
2026-05-06 19:54 36.07747 -115.12156 2053 ft 1 kts 125°
2026-05-06 19:55 36.07706 -115.12130 2053 ft 8 kts 174°
2026-05-06 19:55 36.07658 -115.12139 2056 ft 6 kts 204°
2026-05-06 19:55 36.07649 -115.12159 2052 ft 1 kts 255°
2026-05-06 19:55 36.07643 -115.12196 2053 ft 12 kts 258°
2026-05-06 19:56 36.07643 -115.12466 2060 ft 51 kts 271°
2026-05-06 19:56 36.07641 -115.13102 2086 ft 96 kts 270°
2026-05-06 19:56 36.07639 -115.14121 2099 ft 141 kts 270°
2026-05-06 19:56 36.07637 -115.15509 2118 ft 182 kts 270°
2026-05-06 19:57 36.07636 -115.16608 2240 ft 201 kts 270°
2026-05-06 19:57 36.07634 -115.18936 3172 ft 201 kts 271°
2026-05-06 19:57 36.07607 -115.20611 3829 ft 191 kts 266°
2026-05-06 19:57 36.07430 -115.22304 4002 ft 208 kts 262°
2026-05-06 19:58 36.07121 -115.24129 4162 ft 226 kts 252°
2026-05-06 19:58 36.06295 -115.25850 4301 ft 244 kts 222°
2026-05-06 19:58 36.05349 -115.26643 4395 ft 254 kts 205°
2026-05-06 19:58 36.03064 -115.27759 4611 ft 274 kts 199°
2026-05-06 19:59 36.01235 -115.28556 4952 ft 282 kts 199°
2026-05-06 19:59 35.99997 -115.29104 5221 ft 286 kts 201°
2026-05-06 19:59 35.97582 -115.30486 5835 ft 291 kts 207°
2026-05-06 19:59 35.96368 -115.31266 6215 ft 292 kts 208°
2026-05-06 20:00 35.94563 -115.32445 6676 ft 295 kts 209°
2026-05-06 20:00 35.92762 -115.33622 7190 ft 296 kts 208°
2026-05-06 20:00 35.90946 -115.34835 7725 ft 297 kts 212°
2026-05-06 20:00 35.89384 -115.36500 8195 ft 299 kts 236°
2026-05-06 20:01 35.88587 -115.38847 8653 ft 299 kts 265°
2026-05-06 20:01 35.88500 -115.41399 9163 ft 298 kts 274°
2026-05-06 20:01 35.88564 -115.43958 9696 ft 299 kts 275°
2026-05-06 20:01 35.88642 -115.46530 10190 ft 301 kts 275°
2026-05-06 20:02 35.88713 -115.49127 10610 ft 305 kts 275°
2026-05-06 20:02 35.88768 -115.51765 10916 ft 308 kts 275°
2026-05-06 20:02 35.88826 -115.54416 10987 ft 309 kts 275°
2026-05-06 20:02 35.88883 -115.57069 11009 ft 310 kts 275°
2026-05-06 20:03 35.88937 -115.59700 11130 ft 314 kts 274°
2026-05-06 20:03 35.88993 -115.62454 11266 ft 327 kts 274°
2026-05-06 20:03 35.89050 -115.65318 11397 ft 340 kts 274°
2026-05-06 20:03 35.89107 -115.68287 11527 ft 353 kts 274°
2026-05-06 20:04 35.89164 -115.71378 11685 ft 366 kts 274°
2026-05-06 20:04 35.89222 -115.74572 11856 ft 379 kts 274°
2026-05-06 20:04 35.89280 -115.77828 12068 ft 388 kts 274°
2026-05-06 20:04 35.89337 -115.81175 12471 ft 393 kts 274°
2026-05-06 20:05 35.89394 -115.84565 12909 ft 396 kts 274°
2026-05-06 20:05 35.89452 -115.87991 13349 ft 399 kts 274°
2026-05-06 20:05 35.89724 -115.91407 13759 ft 400 kts 285°
2026-05-06 20:05 35.90680 -115.94595 14136 ft 396 kts 303°
2026-05-06 20:06 35.92324 -115.97298 14545 ft 392 kts 316°
2026-05-06 20:06 35.94203 -115.99678 14986 ft 392 kts 318°
2026-05-06 20:06 35.96150 -116.02050 15398 ft 393 kts 319°
2026-05-06 20:06 35.98101 -116.04427 15819 ft 395 kts 318°
2026-05-06 20:07 36.00063 -116.06830 16250 ft 398 kts 318°
2026-05-06 20:07 36.02032 -116.09252 16660 ft 400 kts 318°
2026-05-06 20:07 36.04009 -116.11692 17038 ft 402 kts 318°
2026-05-06 20:07 36.05970 -116.14115 17365 ft 405 kts 318°
2026-05-06 20:08 36.07971 -116.16592 17782 ft 406 kts 318°
2026-05-06 20:08 36.09973 -116.19072 18208 ft 407 kts 318°
2026-05-06 20:08 36.11981 -116.21562 18531 ft 409 kts 318°
2026-05-06 20:08 36.13994 -116.24063 18875 ft 410 kts 318°
2026-05-06 20:09 36.15987 -116.26539 19182 ft 412 kts 318°
2026-05-06 20:09 36.18013 -116.29059 19474 ft 414 kts 319°
2026-05-06 20:09 36.20055 -116.31599 19781 ft 416 kts 319°
2026-05-06 20:09 36.22105 -116.34151 20096 ft 418 kts 319°
2026-05-06 20:10 36.24157 -116.36707 20399 ft 420 kts 319°
2026-05-06 20:10 36.26219 -116.39279 20718 ft 421 kts 319°
2026-05-06 20:10 36.28290 -116.41848 21016 ft 422 kts 319°
2026-05-06 20:10 36.30407 -116.44387 21312 ft 423 kts 320°
2026-05-06 20:11 36.32539 -116.46919 21638 ft 425 kts 320°
2026-05-06 20:11 36.34652 -116.49426 21917 ft 427 kts 320°
2026-05-06 20:11 36.36804 -116.51984 22197 ft 429 kts 320°
2026-05-06 20:11 36.38961 -116.54553 22497 ft 430 kts 320°
2026-05-06 20:12 36.41127 -116.57134 22779 ft 432 kts 320°
2026-05-06 20:12 36.43302 -116.59728 23070 ft 434 kts 320°
2026-05-06 20:12 36.45513 -116.62311 23366 ft 435 kts 321°
2026-05-06 20:12 36.47753 -116.64862 23621 ft 437 kts 321°
2026-05-06 20:13 36.49974 -116.67384 23855 ft 439 kts 322°
2026-05-06 20:13 36.52235 -116.69950 24107 ft 440 kts 322°
2026-05-06 20:13 36.54501 -116.72526 24335 ft 441 kts 322°
2026-05-06 20:13 36.56778 -116.75116 24564 ft 443 kts 321°
2026-05-06 20:14 36.59058 -116.77713 24804 ft 445 kts 322°
2026-05-06 20:14 36.61322 -116.80293 25019 ft 446 kts 322°
2026-05-06 20:14 36.63612 -116.82903 25233 ft 447 kts 322°
2026-05-06 20:14 36.65914 -116.85536 25515 ft 447 kts 322°
2026-05-06 20:15 36.68215 -116.88173 25708 ft 450 kts 322°
2026-05-06 20:15 36.70534 -116.90824 25880 ft 452 kts 321°
2026-05-06 20:15 36.72872 -116.93378 26074 ft 451 kts 326°
2026-05-06 20:15 36.75467 -116.95542 26326 ft 447 kts 334°
2026-05-06 20:16 36.78203 -116.97392 26542 ft 447 kts 336°
2026-05-06 20:16 36.80029 -116.98574 26671 ft 448 kts 336°